DELTA 1 DEB, 26839

Orbit data source: Space-Track

DELTA 1 DEB, 26839 is space debris in SSO originally from a launch on Thu, 12 Jun 1975 UTC launched from the Air Force Western Test Range (AFWTR). Debris objects in space refer to the collection of defunct objects orbiting the Earth. Examples of debris include non-operational satellites, rocket bodies, and fragments generated from explosions, collisions, or faulty payload assembly.

Loading next visibility...
Identifier
26839, 1975-052KT
Orbit
SSO
Country
Flag of USUS
Related business
Manufacturer
Unknown
Mission
Spacecraft
Bus & Motor
Unknown
Mass
Unknown
Launch date (UTC)
1975-06-12 (51 years ago)
Launch vehicle
Unknown
Launch site
Air Force Western Test Range (AFWTR)
Object type
Payload
Rocket body
Debris
Shape & HBR
Unknown shape, 0.1 m
Radar Cross Section
Medium (>0.1 m² and <1 m²)

Expand to show TLE details & history
Last TLE update: 2 days ago

TLE from 2 days ago
0 DELTA 1 DEB
1 26839U 75052KT  26170.77170062  .00000109  00000-0  31738-3 0  9998
2 26839 100.1269  98.0695 0081543 242.7554 144.1479 13.31091026666808
Epoch: 2026-06-19T18:31Z
TLE epoch observation values (Epoch: 2026-06-19T18:31:14.933Z)
Latitude
27.02079°
Longitude
-92.93835°
Altitude
1,195.688 km
Speed
7.234 km/s
True Right ascension
06h 11m 28s
True Declination
26° 53' 24"
Sunlit
Object was in daylight at epoch
Visualization orbit readout
Latitude
Unknown
Longitude
Unknown
Altitude
Unknown
Speed
Unknown
Apparent Right ascension
Unknown
Apparent Declination
Unknown
Sunlit
N/A
Visualization observer readout
Local Sidereal Time
12:48:01
Azimuth
Unknown
Elevation
Unknown
Doppler factor
Unknown
Orbital elements
Apogee altitude
1,201.305 km
Perigee altitude
1,078.694 km
Semi-major axis
7,518.136 km
Eccentricity
0.00815
Inclination
100.1269°
RAAN
98.0695°
Arg. of periapsis
242.7554°
True anomaly
144.69069°
Mean anomaly
144.1479°
Eccentric anomaly
144.41974°
Mean motion
3.32949 °/min
Orbital period
108.12 mins
BSTAR
0.00031738
Loading maneuver chart data...
Computing Atmospheric mass density...

Documentation

Showing up to 5 results
|